This is the latest recevied weather packets stored in our database for station/object N4QD-13. If no packets are shown the sender has not sent any weather packets the latest 10 day(s).
| Time | Temp. | Humidity | Pressure | Rain* | Wind** | Luminosity | Snow |
|---|---|---|---|---|---|---|---|
| 1777490640 | 15° C | 99% | 1010.2 hPa | 0 mm | - | 137 W/m² | - |
| 1777490336 | 15° C | 99% | 1010.1 hPa | 0 mm | - | 132 W/m² | - |
| 1777490034 | 15° C | 99% | 1010.3 hPa | 0 mm | - | 117 W/m² | - |
| 1777489732 | 15° C | 99% | 1010.1 hPa | 0 mm | - | 129 W/m² | - |
| 1777487915 | 15.56° C | 99% | 1010.7 hPa | 0 mm | - | 118 W/m² | - |
| 1777487613 | 16.11° C | 99% | 1010.4 hPa | 0 mm | - | 144 W/m² | - |
| 1777487310 | 15.56° C | 99% | 1010.6 hPa | 0 mm | - | 184 W/m² | - |
| 1777486703 | 15.56° C | 99% | 1010.7 hPa | 0 mm | - | 163 W/m² | - |
| 1777486401 | 16.11° C | 99% | 1010.9 hPa | 0 mm | - | 180 W/m² | - |
| 1777486098 | 16.11° C | 99% | 1010.9 hPa | 0 mm | - | 233 W/m² | - |
| 1777485795 | 15.56° C | 99% | 1010.9 hPa | 0 mm | - | 254 W/m² | - |
| 1777484277 | 15° C | 99% | 1011.5 hPa | 1.27 mm | - | 142 W/m² | - |
| 1777483973 | 15° C | 99% | 1012.1 hPa | 1.78 mm | - | 127 W/m² | - |
| 1777483670 | 15.56° C | 99% | 1012.1 hPa | 3.05 mm | - | 121 W/m² | - |
| 1777483365 | 15° C | 99% | 1012.3 hPa | 1.27 mm | - | 123 W/m² | - |
| 1777483061 | 15° C | 99% | 1012.4 hPa | 1.78 mm | - | 115 W/m² | - |
| 1777482758 | 15° C | 99% | 1012.5 hPa | 3.05 mm | - | 106 W/m² | - |
| 1777482454 | 15° C | 99% | 1012.5 hPa | 3.05 mm | - | 98 W/m² | - |
| 1777481243 | 15° C | 99% | 1013.1 hPa | 4.83 mm | - | 121 W/m² | - |
| 1777480636 | 15° C | 99% | 1013.4 hPa | 8.89 mm | - | 70 W/m² | - |
| 1777480333 | 15° C | 99% | 1013.6 hPa | 4.32 mm | - | 72 W/m² | - |
| 1777480029 | 15° C | 99% | 1013.8 hPa | 1.27 mm | - | 48 W/m² | - |
| 1777479726 | 15° C | 99% | 1013.5 hPa | 1.78 mm | - | 95 W/m² | - |
| 1777479424 | 15° C | 99% | 1013.8 hPa | 1.78 mm | - | 82 W/m² | - |
| 1777479120 | 15° C | 99% | 1013.7 hPa | 0 mm | - | 70 W/m² | - |
* Rain latest hour (hover to see other rain measurements)
** Current wind speed in m/s (hover to see current wind gust speed)